FENGYUN 1C DEB

Satellite information

Favourite Embed

Satellite Type and Status

DEBRISIN ORBIT

Key statistics

Satellite FENGYUN 1C DEB at a glance.

Uptime

9497

Days in orbit

Revolutions

≈ 14.1

Per day

Orbit

SSO

Sun Synchronous Orbit

Inclination

99.5

Latest

Satellite identification and parameters

Extended collection of information and parameters for FENGYUN 1C DEB.

Object identification

Identified? True

Debris? True

Object name: FENGYUN 1C DEB

International designator: 1999-025GK

Object number (NORAD): 29889

Object ID (CCSDS): 29889

Country: PEOPLES REPUBLIC OF CHINA (PRC)

Current information (Y/N): Y

RCS size: SMALL

Orbital parameters

Period: 101.903 minutes

Inclination: 99.459 deg

SMA: 7226.887 km

Apoapsis: 959.965 km

Periapsis: 737.54 km

RAAN: 234.66 deg

Eccentricy: 0.0153887

Argument of periapsis: 282.6248 deg

Mean anomaly: 196.5648 deg

Mean motion: 14.13109525 rev/day

Mean motion (dot): 0.0000052 rev/day2

B* drag term: 0.00027288 1/REarth

Two-line elements (TLE)

Creation date: May 10, 2025, 2:32 a.m.

Reference frame: TEME

Reference center: EARTH

Epoch: May 9, 2025, 8:20 p.m. UTC

TLE line 0: 0 FENGYUN 1C DEB

TLE line 1: 1 29889U 99025GK 25129.84769023 .00000520 00000-0 27288-3 0 9996

TLE line 2: 2 29889 99.4590 234.6600 0153887 282.6248 196.5648 14.13109525942554

Live tracking on map

Real-time ground track for satellite FENGYUN 1C DEB.

In-orbit conjunctions

A list of the most updated potential collisions computed for object FENGYUN 1C DEB.

Target Orbit TCA Probability of collision Miss distance Type
NOAA 16 DEB SSO 2025-01-31 19:20:01 0.0001450152 128.0 (m) DEBRIS
FENGYUN 1C DEB SSO 2024-10-03 02:39:58 0.0002532291 127.0 (m) DEBRIS

Associated space launch

Chinese polar orbiting meteorological satellite

FENGYUN 1C DEB was lifted into orbit during the mission ‘Long March 4B | Feng Yun 1C’, on board a Long March 4B space rocket.

The launch took place on May 10, 1999, 1:33 a.m. from Launch Complex 7.

For more information about the launch, click the button.

Launch to space Long March 4B | Feng Yun 1C
Long March 4B | Feng Yun 1C

Agency: N/A

Status: Launch Successful

Launch date: May 10, 1999, 1:33 a.m. UTC

Rocket: Long March 4B

Launch pad: Launch Complex 7

Location: Taiyuan Satellite Launch Center, People's Republic of China

...

Latest news about this satellite

There are no fresh news available about this satellite. Check back as we update our databases every day.


Newsletter sign-up

Weekly statistics, charts and insights to help you stay on top of the space industry.